Regional Weather Roundup
Issued by NWS New Orleans/Baton Rouge, LA

Home | Current Version | Previous Version | Graphics & Text | Print | Product List | Glossary On
Versions: 1 2 3 4 5 6 7 8 9 10 11 12 13 14 15 16 17 18 19 20 21 22 23 24 25 26 27 28 29 30 31 32 33 34 35 36 37 38 39 40 41 42 43 44 45 46 47 48 49 50
406
ASUS44 KLIX 200101
RWRLIX
NEW ORLEANS REGIONAL WEATHER ROUNDUP
NATIONAL WEATHER SERVICE NEW ORLEANS LA
800 PM CDT TUE AUG 19 2014

NOTE: "FAIR" INDICATES FEW OR NO CLOUDS BELOW 12,000 FEET WITH NO
      SIGNIFICANT WEATHER AND/OR OBSTRUCTIONS TO VISIBILITY.
      SKY/WX - SKY CONDITION AND SIGNIFICANT WEATHER.
      TMP - AIR TEMPERATURE.     DP    - DEWPOINT TEMPERATURE.
      RH  - RELATIVE HUMIDITY.   PRES  - PRESSURE.
      HI  - HEAT INDEX.          WCI   - WIND CHILL INDEX.

*  THESE STATIONS ARE NOT NWS OR FAA STATIONS AND ARE NOT UNDER
   NWS QUALITY CONTROL.

LAZ038-040-048-061>063-065>067-069-200200-
SOUTHEAST LOUISIANA

CITY           SKY/WX    TMP DP  RH WIND       PRES   REMARKS
N.O. AUDUBON     N/A     84  76  76 MISG        N/A
N.O. INTL ARPT MOCLDY    83  75  77 S7        29.94F
N.O. LAKEFRONT CLOUDY    85  73  67 SW7       29.95R
N.O. DOWNTOWN*   N/A     86  72  62 SW3       29.96R
SLIDELL        MOCLDY    82  73  74 CALM      29.93F
BATON ROUGE    CLOUDY    79  70  74 W5        29.96R
BOOTHVILLE     CLEAR     85  76  74 SW6       29.97S
BELLE CHASSE   MOCLDY    80  75  84 SW3       29.95R
BOGALUSA*        N/A     82  74  78 CALM      29.96S
GALLIANO*      NOT AVBL
NEW ROADS*       N/A     76  73  88 CALM      29.96R
GONZALES*        N/A     80  76  88 CALM      29.95R
HAMMOND*       NOT AVBL
HOUMA*         MOCLDY    83  72  68 CALM      29.95S
PORT FOURCHON* CLEAR     86  75  70 SW6       29.98S HX  95

$$

MSZ070-080>082-200200-
SOUTHERN MISSISSIPPI

CITY           SKY/WX    TMP DP  RH WIND       PRES   REMARKS
MCCOMB         MOCLDY    83  73  72 S5        29.96R
GULFPORT       PTCLDY    85  73  67 W5        29.93R
BILOXI         CLEAR     85  75  70 SW9       29.94R
PASCAGOULA     CLEAR     84  75  74 VRB5      29.93F
STENNIS ARPT*  PTCLDY   N/A N/A N/A CALM      29.94S

$$

COASTAL OBSERVATIONS
LAKE AND NEARSHORE STATIONS

STATION/POSITION TIME  TEMP    WIND        PRES    WAVE
                       AIR SEA DIR/SP/G            HT/PER
                 (UTC) (F)     (DEG/KT/KT) (MB)    (FT/S)
PASCAGOULA       0000   87     210/ 14/ 17 1013.1
WAVELAND YACHT   0000   83     250/  7/  9 1013.2
GRAND ISLE       0000   86 89  220/  6/  8 1015.2
SOUTHWEST PASS   0000   86 89  200/  4/  5 1015.3
NEW CANAL        0000   87 85  240/  5/  6 1014.4
SHELL BEACH      0000   83 82  220/  3/  4 1014.1

OFFSHORE STATIONS

STATION/POSITION TIME  TEMP    WIND        PRES    WAVE
                       AIR SEA DIR/SP/G            HT/PER
                 (UTC) (F)     (DEG/KT/KT) (MB)    (FT/S)
64 S DAUPHIN ISL 0046   86 89  220/ 10/ 14 1014.9

$$




USA.gov is the U.S. government's official web portal to all federal, state and local government web resources and services.